{"data":{"norad_id":56051,"intl_designator":"2023-043F","name":"ONEWEB-0549","alt_names":[],"object_type":"PAYLOAD","status":"ACTIVE","operator":null,"country":"UK","launch_date":"2023-03-26","launch_site_code":"SRILR","launch_vehicle":null,"mission":null,"orbit_class":"UNKNOWN","rcs_meters":null,"size_class":null,"mass_kg":null,"dimensions":null,"purposes":["comms"],"wikipedia_slug":null,"has_3d_model":false,"image_url":null,"decayed_at":null,"tle_current":{"epoch":"2026-05-25T05:31:57.239040Z","epoch_age_seconds":62047,"freshness":"FRESH","line1":"1 56051U 23043F   26145.23052360  .00000113  00000+0  24204-3 0  9997","line2":"2 56051  87.9251 248.5485 0001669 108.4402 251.6914 13.21827580155194","mean_motion":13.2182758,"eccentricity":0.0001669,"inclination_deg":87.9251,"raan_deg":248.5485,"arg_perigee_deg":108.4402,"mean_anomaly_deg":251.6914,"bstar":0.00024204,"rev_number":15519,"period_min":108.94007825136,"perigee_km":1176.4862701577,"apogee_km":1179.0084243528,"semimajor_km":7555.8843472552,"source":"CELESTRAK","updated_at":"2026-05-25T13:38:22.700648Z"}}}